This is the latest recevied weather packets stored in our database for station/object CQ0XVC-11. If no packets are shown the sender has not sent any weather packets the latest 10 day(s).
| Time | Temp. | Humidity | Pressure | Rain* | Wind** | Luminosity | Snow |
|---|---|---|---|---|---|---|---|
| 1777842962 | 11.67° C | 66% | 1002.4 hPa | 0 mm | - | - | - |
| 1777842931 | 11.67° C | 66% | 1002.4 hPa | 0 mm | - | - | - |
| 1777842680 | 11.67° C | 65% | 1002.3 hPa | 0 mm | - | - | - |
| 1777842629 | 11.67° C | 65% | 1002.3 hPa | 0 mm | - | - | - |
| 1777842549 | 11.67° C | 67% | 1002.3 hPa | 0 mm | - | - | - |
| 1777842487 | 11.67° C | 67% | 1002.3 hPa | 0 mm | - | - | - |
| 1777842184 | 11.67° C | 64% | 1002.3 hPa | 0 mm | - | - | - |
| 1777841917 | 11.67° C | 64% | 1002.3 hPa | 0 mm | - | - | - |
| 1777841883 | 11.67° C | 64% | 1002.3 hPa | 0 mm | - | - | - |
| 1777841640 | 11.67° C | 63% | 1002.1 hPa | 0 mm | - | - | - |
| 1777841580 | 11.67° C | 63% | 1002.1 hPa | 0 mm | - | - | - |
| 1777841343 | 12.22° C | 62% | 1002.1 hPa | 0 mm | - | - | - |
| 1777841278 | 12.22° C | 62% | 1002.1 hPa | 0 mm | - | - | - |
| 1777841009 | 12.22° C | 60% | 1002.1 hPa | 0 mm | - | - | - |
| 1777840976 | 12.22° C | 60% | 1002.1 hPa | 0 mm | - | - | - |
| 1777840734 | 12.22° C | 62% | 1001.8 hPa | 0 mm | - | - | - |
| 1777840674 | 12.22° C | 62% | 1001.8 hPa | 0 mm | - | - | - |
| 1777840371 | 12.22° C | 61% | 1001.9 hPa | 0 mm | - | - | - |
| 1777840107 | 12.22° C | 61% | 1001.7 hPa | 0 mm | - | - | - |
| 1777840070 | 12.22° C | 61% | 1001.7 hPa | 0 mm | - | - | - |
| 1777839821 | 12.22° C | 58% | 1001.6 hPa | 0 mm | - | - | - |
| 1777839767 | 12.22° C | 58% | 1001.6 hPa | 0 mm | - | - | - |
| 1777839506 | 12.22° C | 59% | 1001.8 hPa | 0 mm | - | - | - |
| 1777839465 | 12.22° C | 59% | 1001.8 hPa | 0 mm | - | - | - |
| 1777838898 | 12.22° C | 60% | 1001.6 hPa | 0 mm | - | - | - |
* Rain since midnight (hover to see other rain measurements)
** Current wind speed in m/s (hover to see current wind gust speed)